Simultaneous Nadir Overpasses (SNOs) Predictions

Prediction of SNOs between AQUA and GOES-15 Satellite Orbit:

Table of predicted SNOs for the next 14.0 days since TLE Epoch: 4/20/2018
Index Date Time (AQUA) AQUA Lat,Lon GOES-15 Lat,Lon Distance(km) Time Diff (sec)
1 04/21/2018 10:44:54 0.44,-137.10 0.09,-135.39 194.73 80
2 04/23/2018 10:32:41 -0.19,-134.14 0.09,-135.42 145.24 80
3 04/23/2018 22:54:04 -0.92,-139.33 -0.09,-135.43 443.29 80
4 04/25/2018 10:20:28 -0.83,-131.18 0.10,-135.44 484.92 80
5 04/25/2018 22:41:51 -0.29,-136.37 -0.09,-135.46 103.69 80
6 04/27/2018 22:29:38 0.36,-133.41 -0.10,-135.48 235.66 80
7 04/28/2018 10:50:52 0.77,-138.56 0.09,-135.48 351.23 80
8 04/30/2018 10:38:40 0.12,-135.60 0.09,-135.50 12.45 80
9 05/02/2018 10:26:27 -0.53,-132.64 0.09,-135.51 325.89 80
10 05/02/2018 22:47:49 -0.59,-137.83 -0.08,-135.52 263.07 80




NCC Satellite Simultaneous Nadir Overpasses (SNOs) Prediction Service
